This is the latest recevied weather packets stored in our database for station/object KI8L. If no packets are shown the sender has not sent any weather packets the latest 1 day(s).
| Time | Temp. | Humidity | Pressure | Rain* | Wind** | Luminosity | Snow |
|---|---|---|---|---|---|---|---|
| 1778049695 | 7.22° C | 99% | 1010.1 hPa | 3.05 mm | 0.89 m/s, 356° | 0 W/m² | - |
| 1778049394 | 7.22° C | 99% | 1010.1 hPa | 4.83 mm | 0.89 m/s, 13° | 0 W/m² | - |
| 1778049090 | 7.22° C | 99% | 1010 hPa | 4.32 mm | 1.34 m/s, 16° | 0 W/m² | - |
| 1778048789 | 7.22° C | 99% | 1010.1 hPa | 3.05 mm | 1.34 m/s, 51° | 0 W/m² | - |
| 1778048485 | 7.22° C | 99% | 1010.1 hPa | 1.78 mm | 0.89 m/s, 17° | 0 W/m² | - |
| 1778048181 | 7.22° C | 99% | 1010.1 hPa | 1.27 mm | 1.34 m/s, 3° | 0 W/m² | - |
| 1778047879 | 7.22° C | 99% | 1010 hPa | 1.27 mm | 1.34 m/s, 38° | 0 W/m² | - |
| 1778047577 | 7.22° C | 99% | 1010.1 hPa | 0 mm | 0.89 m/s, 19° | 0 W/m² | - |
| 1778047274 | 7.22° C | 99% | 1010.1 hPa | 1.78 mm | 0.89 m/s, 21° | 0 W/m² | - |
| 1778046971 | 7.22° C | 99% | 1010.1 hPa | 1.78 mm | 0.45 m/s, 355° | 0 W/m² | - |
| 1778046668 | 7.22° C | 99% | 1010.2 hPa | 1.78 mm | 0.45 m/s, 344° | 0 W/m² | - |
| 1778046365 | 7.22° C | 99% | 1010.3 hPa | 3.05 mm | 0.89 m/s, 21° | 0 W/m² | - |
| 1778046060 | 7.22° C | 99% | 1010.3 hPa | 1.27 mm | 1.34 m/s, 44° | 0 W/m² | - |
| 1778045759 | 7.22° C | 99% | 1010.4 hPa | 3.05 mm | 1.34 m/s, 16° | 0 W/m² | - |
| 1778045457 | 7.78° C | 99% | 1010.4 hPa | 3.05 mm | 1.34 m/s, 36° | 0 W/m² | - |
| 1778045155 | 8.33° C | 99% | 1010.5 hPa | 3.05 mm | 2.24 m/s, 22° | 0 W/m² | - |
| 1778044852 | 8.89° C | 99% | 1010.2 hPa | 4.83 mm | 1.34 m/s, 37° | 0 W/m² | - |
| 1778044549 | 8.89° C | 99% | 1010.2 hPa | 4.32 mm | 0.89 m/s, 34° | 0 W/m² | - |
| 1778044246 | 8.89° C | 99% | 1010.5 hPa | 1.27 mm | 0.45 m/s, 33° | 0 W/m² | - |
| 1778043944 | 8.89° C | 99% | 1010.3 hPa | 1.78 mm | 0 m/s | 0 W/m² | - |
| 1778043641 | 8.89° C | 99% | 1010.4 hPa | 1.78 mm | 0.89 m/s, 20° | 0 W/m² | - |
| 1778043337 | 8.89° C | 99% | 1010.4 hPa | 0 mm | 0.89 m/s, 47° | 0 W/m² | - |
| 1778043034 | 8.89° C | 99% | 1010.3 hPa | 1.27 mm | 0.89 m/s, 30° | 0 W/m² | - |
| 1778042732 | 8.89° C | 99% | 1010.4 hPa | 1.27 mm | 0.45 m/s, 41° | 0 W/m² | - |
| 1778042429 | 8.89° C | 99% | 1010.3 hPa | 1.78 mm | 0.45 m/s, 29° | 0 W/m² | - |
* Rain latest hour (hover to see other rain measurements)
** Current wind speed in m/s (hover to see current wind gust speed)